Location: Cul de Sac
(18.0387°N, 63.0654°W)
Time: 08:29:51
(UTC+00:00)

Envisat - Visible Passes

Search period start: 19 June 2021 00:00
Search period end: 29 June 2021 00:00
Orbit: 764 x 766 km, 98.1° (Epoch: 18 June)

Date Brightness Start Highest point End Pass type
(mag) Time Alt. Az. Time Alt. Az. Time Alt. Az.
19 Jun 5.8 08:15:59 10° ENE 08:18:09 13° E 08:20:19 10° ESE visible
21 Jun 5.1 08:39:22 10° NE 08:43:34 26° E 08:47:45 10° SSE visible
23 Jun 3.9 09:04:00 10° NNE 09:08:56 52° E 09:13:51 10° S visible
24 Jun 5.5 08:28:30 10° NE 08:32:05 19° E 08:35:38 10° SE visible
26 Jun 4.4 08:52:45 10° NNE 08:57:27 38° E 09:02:09 10° SSE visible
27 Jun 5.7 08:17:56 10° ENE 08:20:34 14° E 08:23:11 10° SE visible
